Kivalina, AK

6:07 PM AKDT on October 13, 2019 (GMT -0800)
Kivalina

Weather History for PAVL - August, 2019

Change the Weather History Date:

Thursday, August 22, 2019

  Actual Average (PAWN) Record (PAWN)
Temperature  
Mean Temperature 48 °F -  
Max Temperature 52 °F 55 °F 78 °F (2004)
Min Temperature 44 °F 38 °F 28 °F (2000)
Degree Days  
Heating Degree Days 18    
Moisture  
Dew Point 41 °F    
Average Humidity 77    
Maximum Humidity 85    
Minimum Humidity 68    
Precipitation  
Precipitation 0.00 in - - ()
Sea Level Pressure  
Sea Level Pressure 29.79 in    
Wind  
Wind Speed 17 mph ()    
Max Wind Speed 26 mph    
Max Gust Speed -    
Visibility 9.1 miles    
Events      
Averages and records for this station are not official NWS values.
T = Trace of Precipitation, MM = Missing Value Source: Averaged Metar Reports

Daily Weather History Graph

Daily Weather History Graph

Search for Another Location

Airport or City:

Astronomy

Aug. 22, 2019 Rise Set
Actual Time 6:48 AM AKDT 11:10 PM AKDT
Civil Twilight 5:32 AM AKDT 12:25 AM AKDT
Nautical Twilight 3:33 AM AKDT 2:28 AM AKDT
Astronomical Twilight Sun does not rise Sun does not rise
Moon 11:43 PM AKDT (8/22) 4:54 PM AKDT (8/22)
Length of Visible Light 18h 52m
Length of Day
16h 22m
Waning Gibbous, 58% of the Moon is Illuminated
Aug 22
Waning Gibbous
Aug 23
Last Quarter
Aug 30
New
Sep 5
First Quarter
Sep 13
Full

Hourly Weather History & Observations

Time (AKDT) Temp. Windchill Dew Point Humidity Pressure Visibility Wind Dir Wind Speed Gust Speed Precip Events Conditions
12:53 AM 46.9 °F - 42.1 °F 83% 29.72 in 10.0 mi North 19.6 mph - N/A   Clear
2:53 AM 46.0 °F 38.3 °F 39.9 °F 79% 29.73 in 10.0 mi North 20.7 mph - N/A   Clear
3:53 AM 45.0 °F 37.4 °F 39.9 °F 82% 29.74 in 10.0 mi NNE 18.4 mph - N/A   Clear
4:53 AM 44.1 °F 36.8 °F 39.0 °F 82% 29.75 in 10.0 mi North 16.1 mph - N/A   Clear
5:53 AM 44.1 °F 36.2 °F 39.9 °F 85% 29.75 in 10.0 mi NNE 18.4 mph - N/A   Clear
6:53 AM 44.1 °F 36.8 °F 39.0 °F 82% 29.76 in 9.0 mi NNE 16.1 mph - N/A   Clear
7:53 AM 44.1 °F 37.1 °F 39.9 °F 85% 29.78 in 9.0 mi NNE 15.0 mph - N/A   Clear
8:53 AM 45.0 °F 37.6 °F 39.9 °F 82% 29.78 in 9.0 mi NNE 17.3 mph - N/A   Clear
9:53 AM 46.9 °F - 39.0 °F 74% 29.80 in 9.0 mi North 5.8 mph - N/A   Clear
11:53 AM 51.1 °F - 42.1 °F 71% 29.80 in 9.0 mi North 23.0 mph - N/A   Clear
1:45 PM 51.1 °F - 44.1 °F 77% 29.81 in 9.0 mi North 23.0 mph - N/A   Mostly Cloudy
2:53 PM 50.0 °F - 43.0 °F 77% 29.81 in 9.0 mi North 23.0 mph - N/A   Overcast
3:23 PM 51.1 °F - 43.0 °F 74% 29.80 in 9.0 mi NNW 23.0 mph - N/A   Scattered Clouds
3:33 PM 50.0 °F - 43.0 °F 77% 29.80 in 9.0 mi North 23.0 mph - N/A   Mostly Cloudy
3:45 PM 50.0 °F - 42.1 °F 74% 29.80 in 9.0 mi North 26.5 mph - N/A   Scattered Clouds
3:53 PM 51.1 °F - 42.1 °F 71% 29.80 in 9.0 mi North 25.3 mph - N/A   Scattered Clouds
4:53 PM 51.1 °F - 41.0 °F 68% 29.80 in 8.0 mi North 24.2 mph - N/A   Clear
5:53 PM 51.1 °F - 42.1 °F 71% 29.81 in 9.0 mi North 23.0 mph - N/A   Partly Cloudy
6:53 PM 51.1 °F - 42.1 °F 71% 29.80 in 9.0 mi North 23.0 mph - N/A   Mostly Cloudy
7:12 PM 51.1 °F - 43.0 °F 74% 29.80 in 9.0 mi North 18.4 mph - N/A   Overcast
7:53 PM 48.9 °F - 44.1 °F 83% 29.80 in 9.0 mi NNW 21.9 mph - N/A   Overcast
8:38 PM 48.9 °F - 42.1 °F 77% 29.80 in 8.0 mi NNW 19.6 mph - N/A   Overcast
8:53 PM 48.9 °F - 41.0 °F 74% 29.80 in 8.0 mi North 18.4 mph - N/A   Overcast
9:53 PM 48.0 °F - 41.0 °F 77% 29.80 in 8.0 mi NNW 18.4 mph - N/A   Overcast
10:53 PM 46.9 °F - 41.0 °F 80% 29.80 in 9.0 mi NNW 15.0 mph - N/A   Overcast
11:53 PM 46.9 °F - 42.1 °F 83% 29.79 in 10.0 mi NNW 11.5 mph - N/A   Overcast